Weather in Sarmakovo

Russia / The Kabardino-Balkar Republic     43°44′25″N   43°11′43″E
temp.,
°C
wind,
m/s
gust,
m/s
humid.,
%
clouds,
%
prec.,
mm/h
press.,
hPa
HPBL,
m
19 june, sat
sat1900:00+15sw22870 0.0 101718
03:00+14sw22870 0.0 101717
06:00+17s23849 0.0 101675
09:00+21ese697635 0.0 1015753
12:00+23ese797499 0.0 10151141
15:00+24ese7970100 0.1 10131137
18:00+23ese5976100 0.0 1013488
21:00+18se3116496 0.0 1015240
20 june, sun
sun2000:00+14se1178100 0.0 101410
03:00+15s1179100 0.0 101311
06:00+16w117911 0.0 101343
09:00+20ne2175100 0.0 1012320
12:00+21nne227888 0.0 1013388
15:00+24nne21651 0.0 1012683
18:00+24ne11720 0.0 1012569
21:00+19wsw22850 0.0 101313
21 june, mon
mon2100:00+18sw22870 0.0 101311
03:00+17wsw22800 0.0 101311
06:00+18sw22700 0.0 101222
09:00+23e23710 0.0 1012384
12:00+25e55710 0.0 1012699
15:00+25ese566789 0.0 1011835
18:00+25ene01722 0.0 1011540
21:00+19ene2271100 0.0 101313
22 june, tue
tue2200:00+17nnw00578 0.0 101211
03:00+16wsw11650 0.0 101211
06:00+19wsw11720 0.0 101335
09:00+23e21660 0.0 1012313
12:00+25e33630 0.0 1012552
15:00+26e23615 0.0 1012652
18:00+25se12715 0.0 1012367
21:00+20wsw22805 0.0 101314
23 june, wed
wed2300:00+19wsw228226 0.0 101211
03:00+19wnw117998 0.0 101211
06:00+20wsw22781 0.0 101241
09:00+24nne22710 0.0 1012519
12:00+26n437284 0.0 10131122
15:00+25nne337662 0.1 1013763
18:00+25n227814 0.3 1014568
21:00+21wsw329099 0.4 101522